Change the Weather History Date:

Friday, December 26, 2014

  Actual Average Record
Temperature  
Mean Temperature 34 °F 24 °F  
Max Temperature 43 °F 33 °F 44 °F (2005)
Min Temperature 25 °F 15 °F -5 °F (2000)
Degree Days  
Heating Degree Days 31 41  
Month to date heating degree days 841 951  
Since 1 July heating degree days 2334 2564  
Cooling Degree Days 0 0  
Month to date cooling degree days 0 0  
Year to date cooling degree days 308 313  
Moisture  
Dew Point 27 °F    
Average Humidity 75    
Maximum Humidity 92    
Minimum Humidity 57    
Precipitation  
Precipitation 0.00 in 0.08 in 0.24 in (2010)
Month to date precipitation 3.35 2.39  
Year to date precipitation 36.40 40.30  
Sea Level Pressure  
Sea Level Pressure 30.15 in    
Wind  
Wind Speed 6 mph (WSW)    
Max Wind Speed 16 mph    
Max Gust Speed 27 mph    
Visibility 10 miles    
Events      
T = Trace of Precipitation, MM = Missing Value Source: NWS Daily Summary

Daily Weather History Graph

Daily Weather History Graph

Search for Another Location

Airport or City:

Trip Planner

Search our weather history database for the weather conditions in past years. The results will help you decide how hot, cold, wet, or windy it might be!

Date:

Astronomy

Dec. 26, 2014 Rise Set
Actual Time 7:22 AM EST 4:24 PM EST
Civil Twilight 6:50 AM EST 4:56 PM EST
Nautical Twilight 6:14 AM EST 5:32 PM EST
Astronomical Twilight 5:40 AM EST 6:07 PM EST
Moon 10:25 AM EST (12/26) 10:11 PM EST (12/26)
Length of Visible Light 10h 06m
Length of Day
9h 01m
Waxing Crescent, 27% of the Moon is Illuminated
Dec 26
Waxing Crescent
Dec 28
First Quarter
Jan 4
Full
Jan 13
Last Quarter
Jan 20
New

Hourly Weather History & Observations

Time (EST) Temp. Windchill Dew Point Humidity Pressure Visibility Wind Dir Wind Speed Gust Speed Precip Events Conditions
12:54 AM 39.9 °F 32.1 °F 27.0 °F 60% 30.06 in 10.0 mi West 13.8 mph 27.6 mph N/A   Overcast
1:54 AM 39.0 °F - 28.0 °F 65% 30.07 in 10.0 mi Calm Calm - N/A   Overcast
2:54 AM 39.0 °F 32.8 °F 28.0 °F 65% 30.09 in 10.0 mi West 9.2 mph - N/A   Overcast
3:54 AM 39.0 °F 34.8 °F 28.9 °F 67% 30.10 in 10.0 mi Variable 5.8 mph - N/A   Overcast
4:54 AM 39.0 °F 32.8 °F 28.0 °F 65% 30.11 in 10.0 mi West 9.2 mph - N/A   Overcast
5:54 AM 39.0 °F 35.7 °F 28.0 °F 65% 30.13 in 10.0 mi Variable 4.6 mph - N/A   Overcast
6:54 AM 39.0 °F 32.8 °F 27.0 °F 62% 30.16 in 10.0 mi West 9.2 mph 16.1 mph N/A   Overcast
7:54 AM 39.0 °F 30.6 °F 27.0 °F 62% 30.17 in 10.0 mi West 15.0 mph 23.0 mph N/A   Overcast
8:54 AM 39.0 °F 35.7 °F 27.0 °F 62% 30.19 in 10.0 mi Variable 4.6 mph - N/A   Overcast
9:54 AM 39.0 °F 34.8 °F 28.0 °F 65% 30.20 in 10.0 mi Variable 5.8 mph - N/A   Overcast
10:54 AM 39.9 °F 33.9 °F 28.0 °F 63% 30.21 in 10.0 mi West 9.2 mph - N/A   Overcast
11:54 AM 41.0 °F 38.0 °F 28.0 °F 60% 30.18 in 10.0 mi WNW 4.6 mph - N/A   Overcast
12:54 PM 42.1 °F 35.2 °F 28.0 °F 58% 30.16 in 10.0 mi WSW 12.7 mph 20.7 mph N/A   Partly Cloudy
1:54 PM 42.1 °F 36.1 °F 28.0 °F 58% 30.16 in 10.0 mi West 10.4 mph 17.3 mph N/A   Overcast
2:54 PM 42.1 °F 37.1 °F 28.0 °F 58% 30.16 in 10.0 mi West 8.1 mph - N/A   Scattered Clouds
3:54 PM 41.0 °F 37.1 °F 28.0 °F 60% 30.14 in 10.0 mi WSW 5.8 mph - N/A   Partly Cloudy
4:54 PM 39.0 °F 35.7 °F 27.0 °F 62% 30.16 in 10.0 mi SSW 4.6 mph - N/A   Clear
5:54 PM 30.9 °F 27.5 °F 26.1 °F 82% 30.17 in 10.0 mi South 3.5 mph - N/A   Clear
6:54 PM 30.0 °F 26.5 °F 26.1 °F 85% 30.17 in 10.0 mi SSE 3.5 mph - N/A   Clear
7:54 PM 28.0 °F - 25.0 °F 88% 30.19 in 10.0 mi Calm Calm - N/A   Clear
8:54 PM 28.0 °F 24.2 °F 24.1 °F 85% 30.19 in 9.0 mi SSE 3.5 mph - N/A   Clear
9:54 PM 27.0 °F - 24.1 °F 89% 30.19 in 7.0 mi Calm Calm - N/A   Clear
10:54 PM 27.0 °F - 24.1 °F 89% 30.17 in 7.0 mi Calm Calm - N/A   Clear
11:54 PM 26.1 °F - 24.1 °F 92% 30.16 in 6.0 mi Calm Calm - N/A   Clear